GFSNE_250_spd_198.txt.gz
Wind_Speed
21 24 30 29 29 28 26 25 26 22 22 25 19 19 18 18 17 14 12 15 14 15 16 17 19 21 22 23 24 28 36 32 27 22 17 17 17 18
29 30 32 28 29 28 21 18 20 20 13 9 13 18 14 11 16 15 14 19 16 18 20 23 25 27 25 24 26 29 32 44 40 28 24 23 23 23
30 33 34 32 33 30 21 14 16 15 13 7 3 10 16 19 13 15 18 19 18 20 23 27 32 32 31 26 26 32 29 36 46 39 34 28 28 29
35 36 37 36 35 28 18 15 14 11 9 11 8 10 18 20 19 18 20 20 21 24 26 28 34 35 33 30 27 31 27 25 36 41 36 32 28 31
39 40 35 36 38 26 23 18 17 13 12 11 14 15 14 19 21 19 17 17 21 23 23 26 30 30 30 29 29 28 29 23 25 38 37 34 31 33
34 35 36 38 32 28 27 23 20 18 19 21 21 21 23 25 27 24 21 25 30 24 25 26 30 29 33 29 27 28 25 23 18 28 36 38 37 36
34 36 37 34 32 31 31 27 26 26 25 26 26 25 25 28 28 28 25 20 25 23 27 22 33 30 31 31 29 27 25 21 17 16 26 32 33 37
39 39 37 35 31 30 33 31 32 32 31 30 30 32 31 30 32 32 29 28 29 28 30 26 28 30 32 29 26 27 25 22 20 16 21 30 35 36
36 35 36 36 35 34 33 36 37 38 38 39 41 38 37 37 36 38 37 37 36 35 36 41 36 35 34 30 32 25 23 24 24 24 24 26 28 31
42 40 41 41 42 40 41 41 40 41 41 45 44 43 45 44 43 45 45 45 44 43 40 43 42 41 44 40 41 39 35 31 28 28 29 31 33 35
49 49 49 48 45 43 45 45 46 45 44 44 41 40 42 43 45 46 49 50 50 49 46 49 49 49 50 47 46 40 40 40 36 31 33 36 36 38
46 48 50 51 49 48 46 47 44 40 39 37 37 40 40 42 46 46 46 48 50 52 53 54 52 53 53 53 51 44 43 42 43 41 40 41 41 41
33 38 46 51 49 46 44 41 37 39 38 36 28 13 20 26 35 40 49 53 53 53 50 53 54 54 53 55 53 50 47 47 47 47 48 46 48 45
20 29 30 34 43 46 43 40 37 32 23 18 21 26 29 31 36 33 31 36 44 56 58 56 55 54 56 57 58 57 52 52 52 54 55 53 51 49
36 36 26 24 29 37 36 36 32 30 24 25 28 31 39 47 47 39 38 47 39 37 45 58 62 58 56 57 61 61 60 60 59 57 54 54 53 52
37 37 32 28 24 27 30 34 33 30 33 33 34 39 43 44 43 44 50 49 45 44 44 40 45 53 58 61 64 64 62 62 60 58 57 56 55 55
41 43 43 41 31 30 34 37 34 31 29 33 39 39 46 49 50 47 43 44 49 52 48 45 41 42 44 48 55 60 62 62 61 59 57 56 56 56
49 45 40 38 33 31 38 40 42 36 39 42 42 43 48 54 58 54 43 52 67 60 46 43 41 42 44 47 49 53 55 56 56 57 57 57 58 55
51 46 50 46 38 37 39 45 40 33 35 38 47 49 52 54 61 54 57 55 58 50 49 44 45 42 42 45 46 46 48 50 53 56 60 62 61 51
49 44 47 46 45 43 42 38 42 40 38 42 48 49 50 56 58 56 62 56 54 53 48 46 42 39 38 41 44 45 45 45 47 46 48 46 44 47
54 49 49 45 40 43 44 40 36 38 44 49 53 51 53 54 56 51 57 49 50 50 48 47 45 40 38 37 38 40 41 41 41 43 46 47 46 48
61 61 49 43 40 39 41 42 46 46 48 47 48 48 48 52 50 44 44 53 49 51 46 44 42 39 38 39 38 38 38 39 40 42 44 46 50 53
70 59 57 54 48 50 48 45 45 43 44 44 45 44 46 52 51 43 52 49 45 42 43 43 42 40 40 39 37 38 38 36 36 38 39 43 45 45

GFSNE_250_spd_201.txt.gz
Wind_Speed
22 19 19 23 23 24 23 28 25 18 22 19 14 15 12 15 15 13 17 11 11 9 13 15 17 19 22 22 23 22 22 25 26 35 32 26 28 25
25 25 27 27 24 24 24 27 27 16 19 13 8 13 21 21 11 14 19 14 13 12 16 19 20 20 24 25 25 24 24 27 29 28 42 36 29 27
29 31 30 29 29 27 30 30 24 17 14 10 6 8 9 13 14 17 14 11 15 14 16 19 22 19 23 26 28 27 27 27 30 25 29 46 37 33
33 31 33 30 31 33 30 30 22 19 14 10 11 10 10 13 17 22 18 18 16 15 19 24 28 24 24 30 26 28 28 28 29 28 22 31 44 39
38 35 33 35 36 33 30 27 23 23 17 13 13 13 15 19 20 20 20 20 18 20 26 23 26 26 25 28 33 30 29 28 28 29 24 20 33 41
40 38 37 38 38 33 30 27 27 28 24 18 17 18 19 21 24 25 27 25 21 23 29 25 24 24 28 29 34 31 32 27 26 26 26 20 22 34
31 31 33 32 30 33 32 30 27 32 30 26 25 24 23 25 26 28 31 32 27 23 28 29 25 30 27 24 32 28 30 27 26 23 23 21 18 24
41 39 37 41 42 39 34 33 34 32 33 33 31 29 28 27 28 32 34 36 37 33 34 36 33 33 33 32 30 31 31 30 26 26 24 23 20 20
40 41 40 41 40 36 35 33 33 34 34 35 35 35 36 36 37 36 37 39 39 40 43 45 43 43 46 46 41 40 42 38 38 34 35 34 28 28
41 43 46 44 41 35 34 35 36 37 40 40 39 38 39 39 39 40 38 37 38 39 43 46 46 49 51 51 50 49 49 47 49 46 42 41 36 33
42 43 44 44 42 43 45 46 45 42 43 43 44 41 41 37 35 35 37 39 42 43 46 48 48 52 56 57 56 55 54 51 51 52 50 46 42 42
45 45 45 43 42 45 46 47 49 45 44 45 42 43 34 29 27 18 18 25 29 29 30 36 40 51 57 57 56 56 55 54 53 53 51 48 48 46
47 47 47 45 42 37 44 46 49 46 41 39 37 33 33 29 19 18 24 30 29 31 37 42 37 39 45 54 59 59 57 56 56 54 54 52 53 52
38 39 39 38 33 32 33 33 38 41 40 34 33 31 28 24 26 28 28 30 26 32 34 37 45 48 40 43 49 57 60 59 56 57 58 57 58 58
40 35 35 36 36 33 26 21 23 28 33 33 30 30 32 30 30 33 33 34 31 35 34 36 44 43 43 42 46 50 54 59 60 61 60 60 60 61
44 41 40 38 39 33 26 22 21 24 28 29 28 30 36 38 36 36 43 39 41 40 40 42 48 55 47 40 40 43 47 49 51 55 60 63 65 64
48 49 47 45 40 39 37 34 28 28 30 30 28 31 33 33 38 40 41 44 44 50 54 49 47 51 49 36 37 39 40 40 42 44 47 50 53 55
49 52 53 50 48 46 37 33 31 33 34 35 33 34 37 38 38 38 41 46 48 52 50 42 44 52 43 41 39 40 39 36 37 39 41 44 46 48
53 49 52 44 51 43 46 42 34 35 38 35 38 36 35 42 43 41 47 47 47 44 42 41 42 44 43 37 35 36 36 37 39 41 39 38 41 44
49 47 44 44 45 49 48 49 46 42 43 43 37 39 41 44 44 42 44 45 46 42 37 38 41 40 44 37 35 35 37 40 40 40 41 41 40 39
60 57 54 48 47 46 47 44 44 48 49 46 39 38 39 40 41 41 45 44 41 38 37 38 40 43 43 40 38 39 39 38 38 39 37 38 39 40
65 59 56 59 55 51 53 54 55 53 56 47 47 36 39 40 40 41 44 43 39 36 39 37 41 44 47 45 43 42 43 40 38 39 39 35 32 34
72 70 63 60 61 61 58 58 57 61 59 48 47 42 42 41 40 41 43 42 40 36 38 37 41 48 50 49 47 43 43 39 35 37 38 37 36 32

GFSNE_250_spd_207.txt.gz
Wind_Speed
29 33 33 30 30 28 27 28 30 32 33 31 31 26 26 12 8 8 8 12 14 12 16 16 15 14 14 14 18 19 15 16 25 26 28 28 27 30
28 30 34 35 34 31 31 30 32 33 32 31 28 26 23 19 9 7 12 18 15 16 18 18 17 17 16 17 18 19 20 27 21 21 28 27 29 30
33 31 34 36 36 36 36 34 33 34 34 32 28 29 23 21 13 18 20 19 16 19 15 17 19 19 17 22 21 22 25 28 25 21 24 27 26 29
33 34 36 39 41 43 42 38 34 36 37 35 30 26 24 21 18 14 15 19 19 25 26 19 20 19 26 24 23 25 28 26 28 26 24 24 24 25
37 39 42 39 39 41 41 39 41 36 38 33 28 25 24 22 21 21 21 21 21 23 22 23 26 26 28 29 30 25 26 26 31 31 28 31 31 27
43 41 40 39 38 39 40 41 36 38 28 25 29 29 26 26 26 25 24 24 22 24 26 24 25 29 30 32 33 31 31 31 32 39 36 37 36 35
45 42 43 45 43 40 37 38 39 36 30 30 31 27 29 28 30 30 29 29 28 28 34 33 35 35 35 35 36 37 39 41 42 40 43 45 41 41
40 37 34 35 39 41 43 41 38 35 37 35 34 31 30 28 25 28 30 32 31 29 34 34 33 33 32 33 33 34 37 39 40 44 44 44 44 43
41 42 39 36 34 33 34 35 37 37 39 38 36 34 31 30 29 31 33 34 33 34 36 32 28 25 25 21 17 21 24 29 33 37 43 47 46 48
45 45 45 41 39 39 39 40 38 37 33 32 33 34 37 37 37 36 37 38 35 33 33 28 23 22 22 21 24 27 28 32 33 34 38 42 45 49
38 42 45 44 40 37 36 37 39 37 37 39 42 40 39 40 41 42 43 44 42 32 28 25 20 22 25 26 23 25 32 33 35 35 41 40 44 44
40 39 40 41 39 41 41 37 37 36 39 38 36 37 37 37 38 39 37 36 37 29 25 25 24 25 25 26 26 34 38 42 42 43 38 45 45 48
43 47 47 43 39 39 37 39 35 32 35 36 33 28 31 39 41 36 33 32 31 25 29 27 27 30 30 33 30 32 39 40 43 39 41 41 41 43
47 39 38 42 38 34 37 39 36 30 26 27 24 23 29 33 32 28 26 28 29 28 32 32 30 32 36 37 40 42 41 41 41 40 38 40 40 40
38 37 33 34 43 41 38 35 34 30 26 28 22 27 26 28 25 23 25 28 31 30 34 36 37 36 40 43 44 44 40 44 40 37 41 40 42 42
51 56 47 49 47 38 33 35 34 31 27 32 28 30 33 30 29 25 25 28 31 32 38 40 41 41 45 45 45 45 43 46 42 42 44 44 44 44
56 52 52 55 54 41 43 43 44 37 38 37 40 39 37 35 33 32 28 29 28 30 33 37 44 45 45 43 43 43 39 39 40 42 43 47 44 44
60 56 63 56 56 61 60 54 48 46 49 50 48 49 42 38 36 33 30 25 27 30 33 35 37 41 43 46 44 43 36 37 39 41 39 42 43 41
73 72 68 71 66 53 63 63 63 62 59 56 57 52 52 50 45 39 36 33 30 30 31 28 30 35 41 47 48 45 39 39 40 41 40 42 44 44
67 77 73 65 67 69 66 62 66 67 67 65 62 57 56 51 51 49 48 45 49 48 43 45 48 43 43 44 48 45 46 46 48 41 43 45 45 46
68 71 73 72 71 70 73 70 73 71 69 68 63 58 60 59 51 54 51 50 53 54 61 58 54 48 45 46 45 48 51 51 47 46 48 49 45 45
89 82 83 74 76 74 76 78 78 75 69 61 64 62 61 61 60 55 49 51 53 53 51 50 50 49 50 53 56 55 50 50 51 48 49 51 51 51
88 87 93 82 79 78 81 82 80 79 77 71 65 64 62 62 62 57 56 53 53 52 51 50 51 53 54 55 58 59 58 52 52 54 53 54 54 53

GFSNE_250_spd_210.txt.gz
Wind_Speed
19 21 23 27 28 30 30 29 28 27 27 27 29 24 24 19 14 8 5 6 10 11 11 12 14 13 12 12 12 14 16 16 20 21 17 17 16 21
22 23 25 23 24 26 29 30 30 27 31 26 27 28 24 20 14 10 11 11 14 14 11 14 14 15 16 17 16 19 20 23 22 24 21 20 18 19
31 29 24 26 25 25 27 29 31 29 33 26 30 29 23 19 15 12 13 16 16 14 16 17 15 15 16 18 22 23 25 27 27 29 28 24 24 23
35 35 33 29 27 28 31 32 33 34 33 31 32 29 22 19 17 16 14 13 14 17 19 20 21 20 21 21 23 26 26 27 30 30 32 30 32 30
39 36 37 36 32 33 34 31 29 30 33 33 32 28 22 21 21 19 18 17 16 18 19 19 19 21 23 24 25 27 29 30 30 30 34 37 38 37
44 38 38 37 39 39 39 36 32 29 32 33 27 25 23 22 22 22 22 24 24 24 24 22 23 25 27 29 29 30 31 32 32 33 36 39 42 40
43 42 40 42 47 46 42 42 42 35 30 36 31 25 25 27 25 28 25 27 27 27 29 25 28 28 30 29 28 27 27 26 25 25 27 32 38 41
41 37 35 34 34 35 29 28 27 32 37 38 33 30 29 33 30 31 33 30 24 24 26 25 27 28 31 24 20 21 18 15 24 25 27 29 33 36
45 46 42 35 31 31 31 29 29 29 27 27 29 34 35 32 30 29 29 32 32 31 30 28 27 27 24 19 17 19 23 24 24 28 31 34 34 39
33 33 37 39 38 36 37 35 33 34 33 32 31 34 34 34 34 36 38 41 41 39 39 36 29 29 20 18 20 20 22 23 27 31 39 42 41 43
26 27 27 27 30 34 36 33 33 34 31 32 35 37 36 37 37 35 35 37 38 40 38 38 28 28 20 20 20 22 25 29 36 35 43 41 38 39
22 23 21 20 25 29 31 26 24 26 30 32 32 34 36 34 30 29 31 36 41 40 36 32 25 28 22 23 23 25 29 29 36 38 36 36 37 37
27 30 27 28 28 28 28 26 28 20 23 27 26 28 32 27 20 21 29 33 31 29 28 25 23 27 27 23 27 30 34 35 39 39 34 32 36 40
35 34 36 34 31 31 31 29 21 24 26 24 25 27 21 21 20 22 29 31 27 21 21 22 24 28 29 27 28 32 36 41 40 40 32 34 38 41
40 42 43 42 42 37 40 36 35 25 25 23 16 21 22 24 24 27 30 30 29 26 26 25 27 28 26 30 35 38 42 41 40 37 36 37 41 42
47 50 48 46 46 48 46 47 42 40 34 33 26 26 28 27 31 32 33 32 32 31 29 30 29 29 26 27 32 36 35 40 40 40 39 40 41 43
54 50 52 49 48 46 43 42 44 48 49 51 51 47 48 48 46 42 44 41 37 35 32 29 28 27 28 30 32 34 36 38 35 39 40 43 44 43
59 56 54 52 50 49 49 47 48 47 47 49 51 57 59 57 54 49 47 48 45 43 39 38 32 28 28 31 31 33 38 41 46 39 39 41 46 47
62 61 60 55 54 54 55 57 54 52 51 50 51 53 54 57 57 50 47 51 51 48 47 46 45 44 44 41 42 49 54 60 48 45 42 42 49 48
70 64 58 55 50 49 55 57 60 61 55 52 53 51 53 53 54 53 52 49 51 51 52 52 53 53 52 50 53 58 60 55 48 47 45 49 51 51
76 65 59 59 56 56 58 64 68 70 66 61 57 58 57 57 58 54 53 52 51 53 53 54 54 53 51 51 54 54 53 53 50 49 51 49 52 54
74 69 65 66 70 72 83 90 90 80 82 73 65 64 66 63 59 56 53 51 53 55 55 55 57 55 55 53 53 55 53 53 54 56 56 56 55 58
86 83 82 86 88 88 96 102 101 99 86 89 75 68 68 71 64 60 61 63 59 57 54 58 61 62 61 60 59 59 57 58 60 61 63 64 65 64

GFSNE_250_spd_216.txt.gz
Wind_Speed
23 23 20 18 15 12 11 10 14 14 16 16 16 17 23 21 19 15 12 10 9 7 4 6 6 5 8 10 10 12 14 13 13 16 17 17 17 18
24 22 19 17 14 15 16 15 15 14 14 16 18 18 22 20 17 19 15 12 13 14 13 10 11 13 12 13 15 15 14 15 17 19 20 20 21 22
24 23 20 19 21 19 20 17 16 17 17 19 20 20 21 19 18 15 10 12 14 15 14 14 15 15 14 15 14 14 15 17 19 21 23 23 24 24
26 19 17 18 15 19 25 23 26 26 21 22 19 21 20 18 22 13 13 11 12 15 17 19 17 14 15 15 17 19 20 22 24 26 28 27 26 26
30 27 27 27 24 26 31 31 29 30 26 24 24 22 21 20 20 15 16 16 13 14 16 20 22 22 22 21 21 22 25 27 28 27 23 20 21 19
30 25 31 32 33 38 37 34 32 34 30 29 28 31 26 26 23 22 20 21 20 20 22 23 23 24 25 25 24 25 26 27 28 24 19 14 17 19
39 41 40 37 32 34 36 37 37 30 32 32 32 29 27 28 28 26 23 25 22 21 23 24 25 26 26 26 27 26 26 26 23 20 18 18 20 23
41 42 43 43 37 37 39 40 44 38 34 29 23 22 19 19 25 28 30 24 24 25 26 26 28 30 32 33 31 27 27 26 22 19 19 19 18 27
40 44 43 43 41 38 39 40 41 42 36 31 25 23 27 25 24 21 21 23 25 26 26 28 30 32 36 39 36 36 32 29 27 22 17 15 18 23
27 37 40 38 40 39 38 35 35 38 38 36 32 34 28 27 25 24 23 24 21 17 17 19 21 24 29 31 33 31 30 31 28 24 23 16 21 26
29 35 37 35 35 32 31 26 23 24 26 30 27 28 30 29 26 26 25 21 17 17 10 13 15 17 16 18 29 28 26 25 27 27 27 26 26 25
25 28 34 32 27 27 28 19 17 16 18 19 21 22 23 20 14 16 16 19 16 10 9 9 12 15 14 14 14 15 17 22 27 27 30 28 29 27
30 29 34 34 26 30 27 23 19 17 19 22 19 19 18 18 15 13 10 12 14 11 13 9 10 15 15 15 13 11 12 18 22 28 31 33 30 30
37 31 34 37 36 27 34 28 26 25 26 25 24 19 17 19 16 16 15 15 15 16 19 15 17 22 21 16 17 19 18 21 24 29 33 33 34 31
37 37 38 38 33 34 25 26 30 32 29 27 28 31 30 25 24 28 23 21 17 16 20 23 25 27 26 22 21 22 23 24 25 29 33 36 36 38
48 44 38 39 42 44 34 31 35 34 36 34 32 31 31 34 31 31 34 35 32 26 28 33 35 35 36 28 27 26 30 28 30 33 35 37 40 44
49 51 46 49 55 46 50 40 40 41 40 40 37 35 29 29 29 28 34 34 37 40 37 33 34 35 35 37 34 33 35 33 31 36 40 44 43 41
56 54 56 56 56 54 56 53 51 48 45 44 40 35 33 32 33 38 37 32 32 28 29 38 40 38 39 39 39 45 38 43 42 42 44 46 48 52
56 52 51 49 59 67 63 65 65 55 55 49 47 41 39 34 34 40 41 43 44 39 39 35 35 36 39 37 40 44 48 45 48 51 50 50 53 59
68 57 59 64 59 59 69 68 67 65 61 57 53 51 52 47 44 48 53 51 51 49 50 48 51 56 58 50 48 44 46 51 51 51 54 54 57 62
75 63 68 68 61 69 72 77 73 69 64 62 60 56 58 59 56 51 56 58 56 61 60 58 64 67 71 70 63 60 63 54 54 57 53 58 57 59
77 67 72 63 63 69 71 74 76 76 75 72 71 68 66 64 64 62 55 53 60 66 75 76 74 73 77 86 88 86 65 68 63 59 60 59 61 64
77 72 76 67 66 68 68 77 82 80 77 75 74 77 75 71 69 74 71 74 72 76 86 82 80 82 85 94 102 98 103 66 70 70 65 62 56 53

GFSNE_250_spd_219.txt.gz
Wind_Speed
27 26 28 25 22 17 14 12 11 13 12 12 10 9 14 16 14 14 16 10 10 11 9 7 9 10 8 9 9 10 12 15 13 14 17 17 18 17
25 27 31 27 25 20 17 17 17 15 14 16 16 14 14 16 16 14 19 11 11 11 15 15 14 14 15 15 14 14 15 14 14 16 17 21 22 22
28 27 26 27 26 24 22 22 18 13 17 23 20 18 13 16 13 13 20 15 15 14 15 15 15 18 17 18 19 19 18 17 19 19 21 24 27 27
32 29 27 25 29 25 18 23 26 18 18 25 25 21 22 18 15 14 19 17 16 14 13 16 18 18 21 22 19 19 20 22 22 24 24 27 29 27
36 31 30 28 29 26 25 24 25 28 29 25 30 28 26 25 25 19 23 20 18 19 16 16 18 21 22 25 27 27 27 25 25 24 26 26 22 16
38 33 35 32 32 30 23 29 29 30 31 30 34 36 30 29 30 27 28 27 21 20 20 21 23 24 26 28 28 28 27 25 25 25 24 20 19 15
37 36 36 34 37 36 35 32 31 37 36 35 34 28 28 27 21 22 34 36 29 24 25 28 27 27 27 27 30 32 29 26 26 24 21 18 17 19
40 39 41 42 41 40 40 42 47 48 43 42 40 32 27 21 21 27 36 31 26 28 26 26 26 27 30 34 35 37 35 31 31 27 23 18 17 20
38 41 45 44 47 49 48 47 49 52 55 50 46 34 27 26 26 27 27 24 23 26 26 27 30 29 29 33 35 34 35 29 31 31 28 21 20 21
40 41 38 40 44 42 42 46 50 50 51 51 50 45 41 35 28 27 30 26 27 26 30 27 23 23 23 25 25 24 26 27 25 25 24 23 21 21
28 29 24 28 36 41 35 37 37 39 36 35 39 36 38 40 36 31 31 33 31 27 26 22 17 15 12 15 20 16 18 23 25 23 22 24 23 22
30 28 24 23 24 27 32 33 36 34 33 33 33 28 28 33 27 24 25 26 21 21 25 16 15 11 11 15 18 18 15 15 19 20 20 23 27 28
32 30 27 24 23 22 23 26 26 27 26 29 29 26 23 22 21 20 20 15 14 19 22 18 17 16 15 19 20 22 20 18 17 16 19 21 25 31
38 33 29 29 21 21 21 27 23 19 29 29 23 23 23 24 24 25 22 16 18 22 21 17 21 20 21 24 29 24 28 24 21 22 24 27 28 31
46 37 32 33 33 23 29 25 25 22 27 33 34 30 29 28 26 26 25 23 22 27 26 21 17 21 27 28 25 27 26 27 29 28 28 30 31 31
53 44 38 35 32 30 30 33 35 31 30 33 33 37 34 34 30 34 34 34 35 31 34 33 32 34 23 25 21 15 22 19 26 30 30 30 36 39
58 49 46 43 41 38 38 38 41 37 40 42 42 40 37 38 36 35 37 39 40 37 38 41 37 35 35 36 24 25 23 25 27 24 30 32 31 41
63 61 52 47 46 42 41 42 44 45 45 49 53 49 50 45 45 43 40 40 39 37 37 38 39 29 27 22 24 31 31 36 35 38 44 40 41 43
70 70 66 58 49 56 51 44 50 49 49 56 55 50 53 56 50 49 47 43 41 43 42 44 41 46 40 42 40 43 43 54 61 59 59 54 46 53
78 74 71 69 54 55 52 51 53 54 48 50 58 61 66 68 61 61 54 51 44 43 50 52 57 56 55 54 59 62 59 60 64 64 66 67 68 53
81 80 72 70 62 61 61 65 55 57 55 59 58 57 61 69 70 63 61 57 59 57 54 56 53 58 60 55 56 56 66 72 79 75 73 74 78 69
93 82 81 73 67 66 62 63 67 61 66 70 62 58 60 65 72 71 75 65 66 67 66 62 63 66 67 69 69 74 80 84 81 75 74 78 83 81
97 89 86 81 76 71 66 63 75 71 72 77 76 69 62 60 69 78 74 78 71 67 69 68 69 70 73 78 80 79 82 84 82 85 86 89 91 93

GFSNE_250_spd_222.txt.gz
Wind_Speed
28 27 27 28 22 21 24 20 17 15 10 8 6 11 11 17 13 12 15 18 18 15 15 19 17 17 16 15 12 11 11 13 15 14 15 16 17 18
33 30 30 31 29 26 24 25 21 22 16 11 7 13 14 14 18 20 14 16 17 17 14 15 20 21 20 19 19 19 19 18 18 18 16 17 17 18
37 32 32 30 32 27 26 27 29 25 21 10 10 12 13 16 15 16 15 18 18 16 13 13 14 17 18 20 21 22 21 21 19 19 20 21 22 23
39 37 34 35 35 32 27 31 27 24 21 13 17 16 20 21 20 19 19 20 22 17 14 14 14 13 16 19 21 23 23 24 24 24 24 23 21 20
39 40 38 39 38 35 28 30 28 24 23 31 30 28 23 26 25 26 21 30 30 21 19 17 19 20 22 23 26 29 30 29 28 27 25 21 20 16
39 39 38 40 42 37 32 29 29 30 31 34 32 32 30 26 27 19 27 31 27 25 25 20 25 26 28 26 30 33 32 30 30 28 25 21 20 18
43 40 37 38 41 40 36 33 34 33 31 30 37 34 28 28 32 33 29 23 21 29 21 31 29 31 34 32 30 34 36 34 34 32 30 25 20 18
43 40 38 40 45 43 39 40 41 40 35 34 33 39 39 37 37 37 33 22 24 22 21 33 31 27 31 31 35 36 35 37 37 34 31 28 25 21
50 46 44 40 44 44 44 43 45 46 43 43 45 45 43 44 44 41 32 29 32 24 27 27 28 30 32 32 31 31 32 30 26 27 29 26 26 27
54 51 50 46 44 48 47 47 48 49 50 48 49 50 51 46 44 41 37 34 37 32 32 29 30 30 24 28 26 23 23 25 25 22 18 19 21 24
54 51 49 48 46 46 48 49 46 48 43 43 43 43 48 48 43 40 42 37 36 36 34 31 30 25 21 17 15 16 20 21 21 18 15 18 18 21
51 46 44 49 48 48 46 41 43 44 41 38 37 37 35 35 31 29 30 36 37 33 27 31 23 21 16 9 13 15 16 18 17 15 14 14 16 19
49 42 41 44 41 35 30 27 25 23 26 30 30 31 31 29 24 20 18 21 23 21 21 20 16 21 22 18 19 22 19 14 13 11 16 17 16 19
55 48 44 43 39 36 32 24 18 17 18 20 24 27 28 27 23 21 19 18 18 17 20 18 21 25 25 22 22 20 21 19 17 14 12 15 18 23
57 56 50 46 43 37 30 29 23 22 20 21 20 23 22 19 17 18 19 22 23 23 23 22 21 19 22 23 23 17 16 15 15 11 11 15 17 16
64 61 60 54 47 41 39 33 31 30 28 26 27 25 25 24 24 23 25 22 24 30 31 30 28 32 34 35 30 27 28 20 16 20 16 20 25 30
72 65 67 59 56 45 42 38 36 32 37 35 31 29 27 25 25 21 33 31 31 30 39 42 42 38 37 38 39 42 41 39 21 25 27 36 40 42
75 70 72 65 59 51 45 43 36 33 36 43 41 36 37 33 32 35 36 35 35 33 35 38 41 42 41 46 41 37 32 37 38 36 44 51 49 50
88 76 72 69 67 60 55 49 42 44 43 49 54 50 46 42 40 40 44 45 50 44 40 40 43 45 46 46 45 52 49 46 53 55 57 57 55 59
94 83 76 75 69 67 63 59 57 55 54 54 48 42 43 46 49 51 52 52 55 56 55 53 53 55 44 47 50 50 47 53 54 57 57 55 59 64
98 90 85 77 73 69 71 66 63 61 57 55 58 52 51 56 58 61 57 55 59 57 61 58 55 59 58 59 61 59 59 59 62 61 62 63 68 66
100 100 95 88 83 74 75 76 72 66 59 59 60 52 51 52 62 60 52 57 58 57 59 62 60 59 64 67 65 66 69 67 67 60 65 67 72 68
96 101 101 100 94 86 78 79 75 73 66 60 54 45 49 65 61 61 59 61 59 59 55 58 56 56 60 70 73 72 70 69 72 71 74 74 79 78